Location: Puketoi
(40.5833°S, 176.0167°E)
Time: 15:28:59
(UTC+00:00)

PAYLOAD A - Pass Details

Date: 01 October 2023
Orbit: 691 x 830 km, 98.5° (Epoch: 10 December)

Event Time Altitude Azimuth Distance (km) Brightness Sun altitude
Exits shadow 13:33:38 16° 120° (ESE) 2,052 6.6 -41.8°
Drops below altitude 10° 13:36:51 10° 156° (SSE) 2,470 7.3 -41.5°
Sets 13:40:07 0° 176° (S) 3,409 8.0 -41.2°
